Volver al catálogo

DELTA 1 DEB

ActivoPO
NORAD 21345·DEBRIS·🇺🇸 United States

Lanzado Jun 12, 1975 desde Vandenberg Space Force Base

Loading…

Próximos Pases (próximas 24 horas)

TLE

ActualizadoSource: Space-Track

Época: Sep 13, 2026, 15:20 UTC

1 21345U 75052BP  26256.63947619  .00000108  00000-0  37708-3 0  9997
2 21345  99.4012 137.3010 0187295 192.9910 195.2601 13.11268940686212

Sigue DELTA 1 DEB en tiempo real con AllMySat

Download on the App Store